User: anonymous   Login
Location: Boca do Mato
(22.9085°S, 43.2930°W)
Time: 22:44:31
(UTC+00:00)
Language:

Cosmos 1763 Rocket - Orbit

View from above orbital plane
View from above orbital plane
View from above satellite
View from above satellite

Ground track
Ground track

The orbit data is extracted from the following two-line orbital elements,

1 16864U 86052B   20273.09232566  .00000019  00000-0  14354-4 0  9994
2 16864  74.0308  33.7978 0033253 197.5212 162.4800 14.40594688795707
Epoch (UTC): 29 September 2020 02:12:56
Eccentricity: 0.0033253
inclination: 74.0308°
perigee height: 733 km
apogee height: 780 km
right ascension of ascending node: 33.7978°
argument of perigee: 197.5212°
revolutions per day: 14.40594688
mean anomaly at epoch: 162.4800°
orbit number at epoch: 79570

The dashed part of the orbit path shows where the satellite is in the earth's shadow,  

DLR